Hourly Weather Bolshie Kozly

Today, 20 June, Sunday

Time Temperature Precipitation Wind Pressure Humidity
00:00 +19°C° 0 mm 3 mps 750 mmHg 89%
01:00 +19°C° 0 mm 2 mps 750 mmHg 89%
02:00 +19°C° 0 mm 2 mps 750 mmHg 90%
03:00 +18°C° 0 mm 2 mps 750 mmHg 90%
04:00 +18°C° 0 mm 2 mps 750 mmHg 90%
05:00 +18°C° 0 mm 2 mps 749 mmHg 91%
06:00 +20°C° 0 mm 3 mps 749 mmHg 86%
07:00 +22°C° 0 mm 3 mps 750 mmHg 81%
08:00 +25°C° 0 mm 3 mps 750 mmHg 76%
09:00 +26°C° 0 mm 4 mps 750 mmHg 72%
10:00 +27°C° 0 mm 4 mps 750 mmHg 68%
11:00 +28°C° 0 mm 5 mps 749 mmHg 64%
12:00 +29°C° 0 mm 5 mps 749 mmHg 62%
13:00 +29°C° 0 mm 4 mps 749 mmHg 59%
14:00 +30°C° 0 mm 4 mps 749 mmHg 57%
15:00 +29°C° 0.6 mm 4 mps 748 mmHg 61%
16:00 +29°C° 0.6 mm 4 mps 748 mmHg 65%
17:00 +28°C° 0.6 mm 4 mps 748 mmHg 69%
18:00 +27°C° 0.4 mm 4 mps 748 mmHg 75%
19:00 +26°C° 0.4 mm 3 mps 748 mmHg 81%
20:00 +25°C° 0.4 mm 3 mps 747 mmHg 86%
21:00 +24°C° 0 mm 3 mps 747 mmHg 87%
22:00 +22°C° 0 mm 3 mps 747 mmHg 89%
23:00 +21°C° 0 mm 3 mps 747 mmHg 90%

Tomorrow, 21 June, Monday

Time Temperature Precipitation Wind Pressure Humidity
00:00 +20°C° 0 mm 3 mps 747 mmHg 91%
01:00 +20°C° 0 mm 3 mps 747 mmHg 92%
02:00 +19°C° 0 mm 3 mps 747 mmHg 93%
03:00 +19°C° 0 mm 3 mps 747 mmHg 93%
04:00 +19°C° 0 mm 3 mps 747 mmHg 94%
05:00 +18°C° 0 mm 3 mps 747 mmHg 94%
06:00 +20°C° 0 mm 3 mps 747 mmHg 89%
07:00 +21°C° 0 mm 4 mps 747 mmHg 83%
08:00 +23°C° 0 mm 4 mps 747 mmHg 78%
09:00 +25°C° 0 mm 5 mps 747 mmHg 73%
10:00 +26°C° 0 mm 5 mps 747 mmHg 67%
11:00 +27°C° 0 mm 5 mps 747 mmHg 62%
12:00 +28°C° 0 mm 5 mps 746 mmHg 61%
13:00 +28°C° 0 mm 5 mps 746 mmHg 59%
14:00 +29°C° 0 mm 5 mps 746 mmHg 58%
15:00 +28°C° 0.7 mm 5 mps 746 mmHg 63%
16:00 +27°C° 0.7 mm 5 mps 745 mmHg 68%
17:00 +27°C° 0.7 mm 4 mps 745 mmHg 74%
18:00 +26°C° 0.5 mm 4 mps 745 mmHg 78%
19:00 +25°C° 0.5 mm 3 mps 745 mmHg 82%
20:00 +24°C° 0.5 mm 3 mps 745 mmHg 86%
21:00 +23°C° 0 mm 2 mps 745 mmHg 87%
22:00 +21°C° 0 mm 2 mps 745 mmHg 88%
23:00 +21°C° 0 mm 2 mps 745 mmHg 89%

Day after tomorrow, 22 June, Tuesday

Time Temperature Precipitation Wind Pressure Humidity
00:00 +20°C° 0 mm 2 mps 745 mmHg 90%
01:00 +20°C° 0 mm 2 mps 745 mmHg 92%
02:00 +19°C° 0 mm 3 mps 745 mmHg 93%
03:00 +19°C° 0 mm 2 mps 745 mmHg 94%
04:00 +19°C° 0 mm 2 mps 745 mmHg 94%
05:00 +19°C° 0 mm 2 mps 745 mmHg 95%
06:00 +21°C° 0 mm 3 mps 745 mmHg 90%
07:00 +22°C° 0 mm 3 mps 745 mmHg 85%
08:00 +25°C° 0 mm 4 mps 745 mmHg 81%
09:00 +26°C° 0 mm 4 mps 746 mmHg 75%
10:00 +27°C° 0 mm 4 mps 746 mmHg 70%
11:00 +28°C° 0 mm 5 mps 746 mmHg 65%
12:00 +29°C° 0.4 mm 4 mps 746 mmHg 64%
13:00 +29°C° 0.4 mm 4 mps 746 mmHg 62%
14:00 +30°C° 0.4 mm 4 mps 746 mmHg 61%
15:00 +30°C° 0.1 mm 4 mps 746 mmHg 61%
16:00 +30°C° 0.1 mm 3 mps 746 mmHg 61%
17:00 +30°C° 0.1 mm 3 mps 746 mmHg 62%
18:00 +29°C° 0.1 mm 2 mps 746 mmHg 67%
19:00 +27°C° 0.1 mm 2 mps 746 mmHg 72%
20:00 +26°C° 0.1 mm 2 mps 746 mmHg 77%
21:00 +25°C° 0.1 mm 1 mps 746 mmHg 79%
22:00 +24°C° 0.1 mm 1 mps 746 mmHg 82%
23:00 +23°C° 0.1 mm 1 mps 746 mmHg 84%

23 June, Wednesday

Time Temperature Precipitation Wind Pressure Humidity
00:00 +23°C° 0 mm 1 mps 746 mmHg 85%
01:00 +23°C° 0 mm 1 mps 746 mmHg 86%
02:00 +22°C° 0 mm 1 mps 746 mmHg 87%
03:00 +22°C° 0 mm 1 mps 746 mmHg 87%
04:00 +22°C° 0 mm 1 mps 747 mmHg 87%
05:00 +22°C° 0 mm 1 mps 747 mmHg 88%
06:00 +24°C° 0 mm 1 mps 747 mmHg 84%
07:00 +25°C° 0 mm 1 mps 747 mmHg 80%
08:00 +26°C° 0 mm 1 mps 747 mmHg 76%
09:00 +28°C° 0 mm 2 mps 747 mmHg 72%
10:00 +29°C° 0 mm 2 mps 747 mmHg 68%
11:00 +30°C° 0 mm 2 mps 748 mmHg 64%
12:00 +30°C° 0.3 mm 3 mps 748 mmHg 63%
13:00 +31°C° 0.3 mm 3 mps 748 mmHg 62%
14:00 +31°C° 0.3 mm 3 mps 748 mmHg 61%
15:00 +31°C° 0.5 mm 3 mps 748 mmHg 63%
16:00 +31°C° 0.5 mm 2 mps 748 mmHg 65%
17:00 +31°C° 0.5 mm 2 mps 748 mmHg 68%
18:00 +29°C° 0.3 mm 2 mps 748 mmHg 72%
19:00 +28°C° 0.3 mm 2 mps 748 mmHg 76%
20:00 +27°C° 0.3 mm 2 mps 748 mmHg 80%
21:00 +26°C° 0 mm 2 mps 748 mmHg 82%
22:00 +25°C° 0 mm 2 mps 748 mmHg 84%
23:00 +24°C° 0 mm 2 mps 748 mmHg 86%

24 June, Thursday

Time Temperature Precipitation Wind Pressure Humidity
00:00 +24°C° 0 mm 2 mps 748 mmHg 86%
01:00 +23°C° 0 mm 2 mps 748 mmHg 86%
02:00 +23°C° 0 mm 2 mps 748 mmHg 87%
03:00 +23°C° 0.1 mm 1 mps 748 mmHg 88%
04:00 +23°C° 0.1 mm 1 mps 748 mmHg 88%
05:00 +23°C° 0.1 mm 1 mps 748 mmHg 89%
06:00 +24°C° 0 mm 1 mps 748 mmHg 86%
07:00 +25°C° 0 mm 1 mps 748 mmHg 82%
08:00 +26°C° 0 mm 2 mps 748 mmHg 79%
09:00 +28°C° 0 mm 2 mps 748 mmHg 74%
10:00 +29°C° 0 mm 2 mps 749 mmHg 69%
11:00 +30°C° 0 mm 2 mps 749 mmHg 65%
12:00 +30°C° 0.2 mm 2 mps 749 mmHg 64%
13:00 +31°C° 0.2 mm 2 mps 749 mmHg 62%
14:00 +31°C° 0.2 mm 2 mps 749 mmHg 61%
15:00 +31°C° 0.1 mm 2 mps 749 mmHg 61%
16:00 +31°C° 0.1 mm 2 mps 748 mmHg 61%
17:00 +31°C° 0.1 mm 2 mps 748 mmHg 61%
18:00 +30°C° 0.5 mm 2 mps 748 mmHg 67%
19:00 +28°C° 0.5 mm 2 mps 748 mmHg 74%
20:00 +26°C° 0.5 mm 2 mps 748 mmHg 81%
21:00 +25°C° 1.1 mm 2 mps 748 mmHg 84%
22:00 +23°C° 1.1 mm 2 mps 748 mmHg 88%
23:00 +21°C° 1.1 mm 2 mps 748 mmHg 92%

25 June, Friday

Time Temperature Precipitation Wind Pressure Humidity
00:00 +22°C° 0.2 mm 1 mps 748 mmHg 93%
01:00 +21°C° 0.2 mm 1 mps 747 mmHg 93%
02:00 +21°C° 0.2 mm 1 mps 747 mmHg 94%
03:00 +21°C° 0.1 mm 1 mps 747 mmHg 94%
04:00 +20°C° 0.1 mm 2 mps 747 mmHg 95%
05:00 +20°C° 0.1 mm 2 mps 747 mmHg 96%
06:00 +21°C° 0.1 mm 2 mps 747 mmHg 91%
07:00 +23°C° 0.1 mm 2 mps 747 mmHg 87%
08:00 +25°C° 0.1 mm 2 mps 747 mmHg 83%
09:00 +26°C° 0 mm 3 mps 747 mmHg 78%
10:00 +27°C° 0 mm 3 mps 746 mmHg 74%
11:00 +29°C° 0 mm 4 mps 746 mmHg 70%
12:00 +29°C° 0.7 mm 4 mps 746 mmHg 69%
13:00 +30°C° 0.7 mm 4 mps 746 mmHg 68%
14:00 +30°C° 0.7 mm 4 mps 746 mmHg 68%
15:00 +29°C° 4.6 mm 4 mps 745 mmHg 73%
16:00 +28°C° 4.6 mm 4 mps 745 mmHg 78%
17:00 +26°C° 4.6 mm 4 mps 744 mmHg 84%
18:00 +25°C° 3.1 mm 4 mps 745 mmHg 87%
19:00 +22°C° 3.1 mm 3 mps 745 mmHg 91%
20:00 +20°C° 3.1 mm 3 mps 746 mmHg 95%
21:00 +20°C° 0 mm 3 mps 746 mmHg 95%
22:00 +20°C° 0 mm 3 mps 746 mmHg 96%
23:00 +19°C° 0 mm 3 mps 747 mmHg 97%
Show more